Location: Brusselsch Zeekanaal
(50.8667°N, 4.3667°E)
Time: 00:24:45
(UTC+00:00)

COSMOS 2455 - Pass Details

Date: 08 November 2025
Orbit: 897 x 910 km, 67.1° (Epoch: 04 December)

Event Time Altitude Azimuth Distance (km) Brightness Sun altitude
Exits shadow 05:28:14 16° 295° (WNW) 2,195 4.2 -12.5°
Maximum altitude 05:31:25 24° 335° (NNW) 1,806 4.1 -12.0°
Drops below altitude 10° 05:36:14 10° 28° (NNE) 2,608 5.4 -11.3°
Sets 05:39:18 0° 42° (NE) 3,552 6.4 -10.8°
